TimeEST,TemperatureF,Dew PointF,Humidity,Sea Level PressureIn,VisibilityMPH,Wind Direction,Wind SpeedMPH,Gust SpeedMPH,PrecipitationIn,Events,Conditions,WindDirDegrees,DateUTC
12:15 AM,48.0,35.6,62,29.90,10.0,WNW,13.8,17.3,N/A,,Clear,300,2013-02-28 05:15:00
12:35 AM,46.6,35.6,66,29.90,10.0,NW,9.2,-,N/A,,Clear,310,2013-02-28 05:35:00
12:55 AM,46.0,35.2,66,29.90,10.0,WNW,12.7,-,N/A,,Clear,300,2013-02-28 05:55:00
1:15 AM,45.5,34.7,66,29.90,10.0,NW,9.2,-,N/A,,Clear,310,2013-02-28 06:15:00
1:35 AM,44.1,34.5,69,29.90,10.0,NW,8.1,-,N/A,,Clear,310,2013-02-28 06:35:00
1:55 AM,44.4,33.1,64,29.90,10.0,WNW,9.2,-,N/A,,Clear,300,2013-02-28 06:55:00
2:15 AM,44.4,32.0,62,29.90,10.0,WNW,10.4,-,N/A,,Clear,300,2013-02-28 07:15:00
2:35 AM,44.4,32.0,62,29.90,10.0,NW,10.4,-,N/A,,Clear,310,2013-02-28 07:35:00
2:55 AM,44.1,32.0,63,29.90,10.0,NW,11.5,-,N/A,,Clear,310,2013-02-28 07:55:00
3:15 AM,43.7,31.8,63,29.91,10.0,WNW,8.1,16.1,N/A,,Clear,290,2013-02-28 08:15:00
3:35 AM,41.7,31.8,68,29.91,10.0,WNW,8.1,-,N/A,,Clear,290,2013-02-28 08:35:00
3:55 AM,42.3,31.8,67,29.90,10.0,WNW,8.1,-,N/A,,Clear,300,2013-02-28 08:55:00
4:15 AM,40.5,31.6,71,29.91,10.0,West,6.9,-,N/A,,Clear,280,2013-02-28 09:15:00
4:35 AM,38.8,31.8,76,29.91,10.0,NW,4.6,-,N/A,,Clear,320,2013-02-28 09:35:00
4:55 AM,39.7,32.0,74,29.90,10.0,WNW,8.1,-,N/A,,Clear,300,2013-02-28 09:55:00
5:15 AM,38.5,32.0,78,29.91,10.0,WNW,5.8,-,N/A,,Clear,290,2013-02-28 10:15:00
5:35 AM,37.0,31.6,81,29.91,10.0,WNW,4.6,-,N/A,,Clear,290,2013-02-28 10:35:00
5:55 AM,37.4,32.0,81,29.92,10.0,West,4.6,-,N/A,,Clear,270,2013-02-28 10:55:00
6:15 AM,37.6,32.0,80,29.92,10.0,West,5.8,-,N/A,,Clear,270,2013-02-28 11:15:00
6:35 AM,36.0,31.3,83,29.92,10.0,West,5.8,-,N/A,,Clear,270,2013-02-28 11:35:00
6:55 AM,37.4,32.0,81,29.93,10.0,West,5.8,-,N/A,,Clear,270,2013-02-28 11:55:00
7:15 AM,34.7,31.5,88,29.93,10.0,West,4.6,-,N/A,,Clear,270,2013-02-28 12:15:00
7:35 AM,37.6,32.0,80,29.93,10.0,West,5.8,-,N/A,,Clear,270,2013-02-28 12:35:00
7:55 AM,38.3,32.7,80,29.93,10.0,West,5.8,-,N/A,,Clear,270,2013-02-28 12:55:00
8:15 AM,39.9,33.6,78,29.94,10.0,West,8.1,-,N/A,,Clear,280,2013-02-28 13:15:00
8:35 AM,41.5,33.8,74,29.94,10.0,WNW,10.4,-,N/A,,Clear,300,2013-02-28 13:35:00
8:55 AM,42.8,33.8,70,29.94,10.0,WNW,15.0,19.6,N/A,,Clear,290,2013-02-28 13:55:00
9:15 AM,43.0,33.6,70,29.95,10.0,WNW,11.5,16.1,N/A,,Clear,300,2013-02-28 14:15:00
9:35 AM,44.2,33.3,65,29.95,10.0,West,11.5,-,N/A,,Clear,280,2013-02-28 14:35:00
9:55 AM,44.6,32.7,63,29.95,10.0,WNW,18.4,25.3,N/A,,Scattered Clouds,290,2013-02-28 14:55:00
10:15 AM,44.4,32.9,64,29.96,10.0,WNW,13.8,21.9,N/A,,Mostly Cloudy,300,2013-02-28 15:15:00
10:35 AM,44.4,32.2,62,29.96,10.0,NW,11.5,21.9,N/A,,Mostly Cloudy,310,2013-02-28 15:35:00
10:55 AM,46.2,32.5,59,29.96,10.0,NNW,13.8,21.9,N/A,,Scattered Clouds,330,2013-02-28 15:55:00
11:15 AM,47.5,32.5,56,29.96,10.0,West,13.8,18.4,N/A,,Mostly Cloudy,280,2013-02-28 16:15:00
11:35 AM,47.8,32.7,56,29.96,10.0,NW,9.2,-,N/A,,Mostly Cloudy,320,2013-02-28 16:35:00
11:55 AM,47.7,32.2,55,29.96,10.0,NW,13.8,19.6,N/A,,Mostly Cloudy,320,2013-02-28 16:55:00
12:15 PM,49.5,32.5,52,29.95,10.0,NNW,12.7,18.4,N/A,,Mostly Cloudy,340,2013-02-28 17:15:00
12:35 PM,50.5,32.2,49,29.95,10.0,NNW,13.8,23.0,N/A,,Mostly Cloudy,330,2013-02-28 17:35:00
12:55 PM,50.0,31.5,49,29.95,10.0,West,13.8,23.0,N/A,,Scattered Clouds,280,2013-02-28 17:55:00
1:15 PM,52.0,32.2,47,29.94,10.0,WNW,16.1,20.7,N/A,,Scattered Clouds,290,2013-02-28 18:15:00
1:35 PM,51.8,32.0,47,29.94,10.0,NW,12.7,17.3,N/A,,Mostly Cloudy,310,2013-02-28 18:35:00
1:55 PM,50.4,31.1,48,29.94,10.0,North,10.4,18.4,N/A,,Scattered Clouds,350,2013-02-28 18:55:00
2:15 PM,51.6,31.6,46,29.94,10.0,NW,13.8,19.6,N/A,,Mostly Cloudy,320,2013-02-28 19:15:00
2:35 PM,52.5,31.5,45,29.94,10.0,WNW,16.1,25.3,N/A,,Scattered Clouds,300,2013-02-28 19:35:00
2:55 PM,52.5,30.7,43,29.94,10.0,NW,16.1,23.0,N/A,,Scattered Clouds,320,2013-02-28 19:55:00
3:15 PM,52.5,30.0,42,29.94,10.0,NNW,16.1,-,N/A,,Scattered Clouds,330,2013-02-28 20:15:00
3:35 PM,52.2,30.2,43,29.94,10.0,NW,19.6,23.0,N/A,,Clear,320,2013-02-28 20:35:00
3:55 PM,51.8,30.2,44,29.94,10.0,NW,15.0,18.4,N/A,,Scattered Clouds,320,2013-02-28 20:55:00
4:15 PM,50.7,30.2,45,29.94,10.0,NW,16.1,20.7,N/A,,Scattered Clouds,310,2013-02-28 21:15:00
4:35 PM,50.5,29.8,45,29.94,10.0,NW,12.7,23.0,N/A,,Clear,320,2013-02-28 21:35:00
4:55 PM,50.0,29.8,46,29.94,10.0,NW,15.0,21.9,N/A,,Clear,310,2013-02-28 21:55:00
5:15 PM,49.3,30.0,48,29.94,10.0,NW,15.0,23.0,N/A,,Clear,310,2013-02-28 22:15:00
5:35 PM,48.4,29.3,48,29.95,10.0,NW,17.3,-,N/A,,Clear,310,2013-02-28 22:35:00
5:55 PM,48.7,29.5,47,29.96,10.0,NNW,12.7,17.3,N/A,,Clear,330,2013-02-28 22:55:00
6:15 PM,47.3,28.4,48,29.97,10.0,NNW,10.4,18.4,N/A,,Clear,340,2013-02-28 23:15:00
6:35 PM,45.5,28.4,51,29.97,10.0,NW,12.7,18.4,N/A,,Clear,320,2013-02-28 23:35:00
6:55 PM,44.6,28.8,54,29.98,10.0,NNW,8.1,-,N/A,,Clear,330,2013-02-28 23:55:00
7:15 PM,44.1,28.6,55,29.99,10.0,NNW,9.2,-,N/A,,Scattered Clouds,330,2013-03-01 00:15:00
7:35 PM,43.3,28.4,56,29.99,10.0,NNW,8.1,-,N/A,,Clear,340,2013-03-01 00:35:00
7:55 PM,42.3,28.9,59,30.00,10.0,NNW,6.9,-,N/A,,Clear,340,2013-03-01 00:55:00
8:15 PM,41.5,28.6,60,30.00,10.0,NNW,10.4,16.1,N/A,,Clear,330,2013-03-01 01:15:00
8:35 PM,40.8,28.6,62,30.00,10.0,NNW,6.9,-,N/A,,Clear,330,2013-03-01 01:35:00
8:55 PM,40.5,28.9,64,30.00,10.0,NNW,6.9,-,N/A,,Scattered Clouds,340,2013-03-01 01:55:00
9:15 PM,41.0,28.4,61,30.01,10.0,NNW,8.1,-,N/A,,Overcast,340,2013-03-01 02:15:00
9:35 PM,41.0,28.4,61,30.00,10.0,NNW,10.4,17.3,N/A,,Overcast,330,2013-03-01 02:35:00
9:55 PM,40.6,27.1,59,30.01,10.0,NNW,10.4,18.4,N/A,,Overcast,330,2013-03-01 02:55:00
10:15 PM,40.3,27.3,60,30.01,10.0,NNW,8.1,16.1,N/A,,Overcast,340,2013-03-01 03:15:00
10:35 PM,40.1,26.6,59,30.01,10.0,North,8.1,-,N/A,,Overcast,350,2013-03-01 03:35:00
10:55 PM,39.7,26.8,60,30.02,10.0,NNW,9.2,-,N/A,,Overcast,330,2013-03-01 03:55:00
11:15 PM,39.4,27.1,62,30.02,10.0,NNW,10.4,16.1,N/A,,Overcast,330,2013-03-01 04:15:00
11:35 PM,39.4,27.1,62,30.02,10.0,NNW,9.2,-,N/A,,Overcast,330,2013-03-01 04:35:00
11:55 PM,39.2,27.3,62,30.01,10.0,NNW,4.6,-,N/A,,Overcast,330,2013-03-01 04:55:00